Year,Month,Day,Hour,Minute,Value (Times are PST for temperature in C)
2021,06,28,00,00,24.40
2021,06,28,00,01,24.40
2021,06,28,00,02,24.30
2021,06,28,00,03,24.30
2021,06,28,00,04,24.30
2021,06,28,00,05,24.20
2021,06,28,00,06,24.20
2021,06,28,00,07,24.20
2021,06,28,00,08,24.10
2021,06,28,00,09,24.10
2021,06,28,00,10,24.00
2021,06,28,00,11,24.00
2021,06,28,00,12,23.90
2021,06,28,00,13,23.90
2021,06,28,00,14,23.80
2021,06,28,00,15,23.80
2021,06,28,00,16,23.70
2021,06,28,00,17,23.60
2021,06,28,00,18,23.50
2021,06,28,00,19,23.40
2021,06,28,00,20,23.40
2021,06,28,00,21,23.30
2021,06,28,00,22,23.20
2021,06,28,00,23,23.10
2021,06,28,00,24,23.00
2021,06,28,00,25,23.00
2021,06,28,00,26,22.90
2021,06,28,00,27,22.80
2021,06,28,00,28,22.70
2021,06,28,00,29,22.70
2021,06,28,00,30,22.60
2021,06,28,00,31,22.50
2021,06,28,00,32,22.40
2021,06,28,00,33,22.30
2021,06,28,00,34,22.30
2021,06,28,00,35,22.20
2021,06,28,00,36,22.20
2021,06,28,00,37,22.10
2021,06,28,00,38,22.10
2021,06,28,00,39,22.10
2021,06,28,00,40,22.10
2021,06,28,00,41,22.10
2021,06,28,00,42,22.20
2021,06,28,00,43,22.20
2021,06,28,00,44,22.30
2021,06,28,00,45,22.30
2021,06,28,00,46,22.40
2021,06,28,00,47,22.40
2021,06,28,00,48,22.40
2021,06,28,00,49,22.40
2021,06,28,00,50,22.40
2021,06,28,00,51,22.40
2021,06,28,00,52,22.40
2021,06,28,00,53,22.50
2021,06,28,00,54,22.50
2021,06,28,00,55,22.60
2021,06,28,00,56,22.60
2021,06,28,00,57,22.70
2021,06,28,00,58,22.70
2021,06,28,00,59,22.70
2021,06,28,01,00,22.70
2021,06,28,01,01,22.70
2021,06,28,01,02,22.70
2021,06,28,01,03,22.70
2021,06,28,01,04,22.70
2021,06,28,01,05,22.70
2021,06,28,01,06,22.80
2021,06,28,01,07,22.80
2021,06,28,01,08,22.80
2021,06,28,01,09,22.80
2021,06,28,01,10,22.80
2021,06,28,01,11,22.80
2021,06,28,01,12,22.80
2021,06,28,01,13,22.70
2021,06,28,01,14,22.70
2021,06,28,01,15,22.70
2021,06,28,01,16,22.60
2021,06,28,01,17,22.60
2021,06,28,01,18,22.60
2021,06,28,01,19,22.60
2021,06,28,01,20,22.50
2021,06,28,01,21,22.50
2021,06,28,01,22,22.40
2021,06,28,01,23,22.40
2021,06,28,01,24,22.30
2021,06,28,01,25,22.30
2021,06,28,01,26,22.30
2021,06,28,01,27,22.20
2021,06,28,01,28,22.20
2021,06,28,01,29,22.10
2021,06,28,01,30,22.10
2021,06,28,01,31,22.10
2021,06,28,01,32,22.10
2021,06,28,01,33,22.10
2021,06,28,01,34,22.10
2021,06,28,01,35,22.10
2021,06,28,01,36,22.10
2021,06,28,01,37,22.10
2021,06,28,01,38,22.10
2021,06,28,01,39,22.10
2021,06,28,01,40,22.10
2021,06,28,01,41,22.10
2021,06,28,01,42,22.10
2021,06,28,01,43,22.10
2021,06,28,01,44,22.10
2021,06,28,01,45,22.10
2021,06,28,01,46,22.10
2021,06,28,01,47,22.10
2021,06,28,01,48,22.20
2021,06,28,01,49,22.20
2021,06,28,01,50,22.20
2021,06,28,01,51,22.20
2021,06,28,01,52,22.20
2021,06,28,01,53,22.20
2021,06,28,01,54,22.30
2021,06,28,01,55,22.30
2021,06,28,01,56,22.30
2021,06,28,01,57,22.40
2021,06,28,01,58,22.40
2021,06,28,01,59,22.50
2021,06,28,02,00,22.60
2021,06,28,02,01,22.70
2021,06,28,02,02,22.70
2021,06,28,02,03,22.80
2021,06,28,02,04,22.90
2021,06,28,02,05,22.90
2021,06,28,02,06,22.90
2021,06,28,02,07,22.90
2021,06,28,02,08,22.90
2021,06,28,02,09,22.90
2021,06,28,02,10,22.90
2021,06,28,02,11,22.80
2021,06,28,02,12,22.80
2021,06,28,02,13,22.70
2021,06,28,02,14,22.60
2021,06,28,02,15,22.60
2021,06,28,02,16,22.50
2021,06,28,02,17,22.40
2021,06,28,02,18,22.40
2021,06,28,02,19,22.30
2021,06,28,02,20,22.20
2021,06,28,02,21,22.10
2021,06,28,02,22,22.10
2021,06,28,02,23,22.00
2021,06,28,02,24,22.00
2021,06,28,02,25,21.90
2021,06,28,02,26,21.90
2021,06,28,02,27,21.80
2021,06,28,02,28,21.80
2021,06,28,02,29,21.80
2021,06,28,02,30,21.80
2021,06,28,02,31,21.80
2021,06,28,02,32,21.80
2021,06,28,02,33,21.80
2021,06,28,02,34,21.80
2021,06,28,02,35,21.70
2021,06,28,02,36,21.70
2021,06,28,02,37,21.70
2021,06,28,02,38,21.80
2021,06,28,02,39,21.80
2021,06,28,02,40,21.80
2021,06,28,02,41,21.80
2021,06,28,02,42,21.70
2021,06,28,02,43,21.70
2021,06,28,02,44,21.70
2021,06,28,02,45,21.70
2021,06,28,02,46,21.70
2021,06,28,02,47,21.80
2021,06,28,02,48,21.80
2021,06,28,02,49,21.80
2021,06,28,02,50,21.80
2021,06,28,02,51,21.80
2021,06,28,02,52,21.80
2021,06,28,02,53,21.80
2021,06,28,02,54,21.80
2021,06,28,02,55,21.80
2021,06,28,02,56,21.80
2021,06,28,02,57,21.80
2021,06,28,02,58,21.80
2021,06,28,02,59,21.70
2021,06,28,03,00,21.70
2021,06,28,03,01,21.60
2021,06,28,03,02,21.60
2021,06,28,03,03,21.60
2021,06,28,03,04,21.60
2021,06,28,03,05,21.60
2021,06,28,03,06,21.60
2021,06,28,03,07,21.60
2021,06,28,03,08,21.60
2021,06,28,03,09,21.60
2021,06,28,03,10,21.60
2021,06,28,03,11,21.60
2021,06,28,03,12,21.60
2021,06,28,03,13,21.50
2021,06,28,03,14,21.50
2021,06,28,03,15,21.40
2021,06,28,03,16,21.40
2021,06,28,03,17,21.30
2021,06,28,03,18,21.30
2021,06,28,03,19,21.30
2021,06,28,03,20,21.30
2021,06,28,03,21,21.30
2021,06,28,03,22,21.30
2021,06,28,03,23,21.30
2021,06,28,03,24,21.30
2021,06,28,03,25,21.30
2021,06,28,03,26,21.30
2021,06,28,03,27,21.30
2021,06,28,03,28,21.30
2021,06,28,03,29,21.20
2021,06,28,03,30,21.20
2021,06,28,03,31,21.20
2021,06,28,03,32,21.20
2021,06,28,03,33,21.20
2021,06,28,03,34,21.10
2021,06,28,03,35,21.10
2021,06,28,03,36,21.00
2021,06,28,03,37,21.00
2021,06,28,03,38,21.00
2021,06,28,03,39,20.90
2021,06,28,03,40,20.90
2021,06,28,03,41,20.80
2021,06,28,03,42,20.80
2021,06,28,03,43,20.80
2021,06,28,03,44,20.80
2021,06,28,03,45,20.80
2021,06,28,03,46,20.80
2021,06,28,03,47,20.90
2021,06,28,03,48,20.90
2021,06,28,03,49,21.00
2021,06,28,03,50,21.10
2021,06,28,03,51,21.20
2021,06,28,03,52,21.20
2021,06,28,03,53,21.20
2021,06,28,03,54,21.30
2021,06,28,03,55,21.30
2021,06,28,03,56,21.30
2021,06,28,03,57,21.40
2021,06,28,03,58,21.40
2021,06,28,03,59,21.40
2021,06,28,04,00,21.40
2021,06,28,04,01,21.40
2021,06,28,04,02,21.40
2021,06,28,04,03,21.40
2021,06,28,04,04,21.40
2021,06,28,04,05,21.40
2021,06,28,04,06,21.40
2021,06,28,04,07,21.40
2021,06,28,04,08,21.30
2021,06,28,04,09,21.30
2021,06,28,04,10,21.30
2021,06,28,04,11,21.30
2021,06,28,04,12,21.30
2021,06,28,04,13,21.30
2021,06,28,04,14,21.30
2021,06,28,04,15,21.30
2021,06,28,04,16,21.30
2021,06,28,04,17,21.30
2021,06,28,04,18,21.30
2021,06,28,04,19,21.30
2021,06,28,04,20,21.40
2021,06,28,04,21,21.40
2021,06,28,04,22,21.40
2021,06,28,04,23,21.50
2021,06,28,04,24,21.50
2021,06,28,04,25,21.40
2021,06,28,04,26,21.40
2021,06,28,04,27,21.40
2021,06,28,04,28,21.30
2021,06,28,04,29,21.30
2021,06,28,04,30,21.30
2021,06,28,04,31,21.20
2021,06,28,04,32,21.20
2021,06,28,04,33,21.20
2021,06,28,04,34,21.10
2021,06,28,04,35,21.10
2021,06,28,04,36,21.20
2021,06,28,04,37,21.30
2021,06,28,04,38,21.30
2021,06,28,04,39,21.30
2021,06,28,04,40,21.40
2021,06,28,04,41,21.40
2021,06,28,04,42,21.40
2021,06,28,04,43,21.50
2021,06,28,04,44,21.50
2021,06,28,04,45,21.50
2021,06,28,04,46,21.50
2021,06,28,04,47,21.40
2021,06,28,04,48,21.30
2021,06,28,04,49,21.30
2021,06,28,04,50,21.20
2021,06,28,04,51,21.20
2021,06,28,04,52,21.20
2021,06,28,04,53,21.20
2021,06,28,04,54,21.20
2021,06,28,04,55,21.10
2021,06,28,04,56,21.10
2021,06,28,04,57,21.20
2021,06,28,04,58,21.10
2021,06,28,04,59,21.10
2021,06,28,05,00,21.10
2021,06,28,05,01,21.00
2021,06,28,05,02,20.90
2021,06,28,05,03,20.80
2021,06,28,05,04,20.80
2021,06,28,05,05,20.70
2021,06,28,05,06,20.70
2021,06,28,05,07,20.60
2021,06,28,05,08,20.50
2021,06,28,05,09,20.50
2021,06,28,05,10,20.40
2021,06,28,05,11,20.30
2021,06,28,05,12,20.30
2021,06,28,05,13,20.20
2021,06,28,05,14,20.20
2021,06,28,05,15,20.20
2021,06,28,05,16,20.10
2021,06,28,05,17,20.10
2021,06,28,05,18,20.10
2021,06,28,05,19,20.10
2021,06,28,05,20,20.00
2021,06,28,05,21,20.00
2021,06,28,05,22,20.00
2021,06,28,05,23,20.00
2021,06,28,05,24,19.90
2021,06,28,05,25,19.90
2021,06,28,05,26,19.80
2021,06,28,05,27,19.80
2021,06,28,05,28,19.80
2021,06,28,05,29,19.80
2021,06,28,05,30,19.80
2021,06,28,05,31,19.80
2021,06,28,05,32,19.80
2021,06,28,05,33,19.80
2021,06,28,05,34,19.80
2021,06,28,05,35,19.80
2021,06,28,05,36,19.80
2021,06,28,05,37,19.80
2021,06,28,05,38,19.80
2021,06,28,05,39,19.70
2021,06,28,05,40,19.70
2021,06,28,05,41,19.70
2021,06,28,05,42,19.70
2021,06,28,05,43,19.70
2021,06,28,05,44,19.70
2021,06,28,05,45,19.70
2021,06,28,05,46,19.70
2021,06,28,05,47,19.70
2021,06,28,05,48,19.70
2021,06,28,05,49,19.70
2021,06,28,05,50,19.70
2021,06,28,05,51,19.70
2021,06,28,05,52,19.80
2021,06,28,05,53,19.80
2021,06,28,05,54,19.80
2021,06,28,05,55,19.80
2021,06,28,05,56,19.80
2021,06,28,05,57,19.80
2021,06,28,05,58,19.90
2021,06,28,05,59,19.90
2021,06,28,06,00,19.90
2021,06,28,06,01,19.90
2021,06,28,06,02,19.90
2021,06,28,06,03,19.90
2021,06,28,06,04,20.00
2021,06,28,06,05,19.90
2021,06,28,06,06,19.90
2021,06,28,06,07,19.90
2021,06,28,06,08,19.90
2021,06,28,06,09,19.90
2021,06,28,06,10,19.90
2021,06,28,06,11,19.90
2021,06,28,06,12,19.90
2021,06,28,06,13,19.90
2021,06,28,06,14,19.90
2021,06,28,06,15,19.90
2021,06,28,06,16,19.90
2021,06,28,06,17,20.00
2021,06,28,06,18,20.00
2021,06,28,06,19,20.00
2021,06,28,06,20,20.00
2021,06,28,06,21,20.00
2021,06,28,06,22,20.00
2021,06,28,06,23,20.00
2021,06,28,06,24,20.00
2021,06,28,06,25,20.00
2021,06,28,06,26,20.00
2021,06,28,06,27,20.00
2021,06,28,06,28,20.00
2021,06,28,06,29,20.00
2021,06,28,06,30,20.00
2021,06,28,06,31,20.00
2021,06,28,06,32,20.00
2021,06,28,06,33,20.00
2021,06,28,06,34,20.00
2021,06,28,06,35,20.00
2021,06,28,06,36,20.00
2021,06,28,06,37,20.00
2021,06,28,06,38,20.10
2021,06,28,06,39,20.10
2021,06,28,06,40,20.10
2021,06,28,06,41,20.00
2021,06,28,06,42,20.10
2021,06,28,06,43,20.10
2021,06,28,06,44,20.10
2021,06,28,06,45,20.10
2021,06,28,06,46,20.10
2021,06,28,06,47,20.10
2021,06,28,06,48,20.10
2021,06,28,06,49,20.10
2021,06,28,06,50,20.10
2021,06,28,06,51,20.10
2021,06,28,06,52,20.10
2021,06,28,06,53,20.10
2021,06,28,06,54,20.10
2021,06,28,06,55,20.10
2021,06,28,06,56,20.10
2021,06,28,06,57,20.20
2021,06,28,06,58,20.20
2021,06,28,06,59,20.20
2021,06,28,07,00,20.30
2021,06,28,07,01,20.30
2021,06,28,07,02,20.40
2021,06,28,07,03,20.40
2021,06,28,07,04,20.40
2021,06,28,07,05,20.50
2021,06,28,07,06,20.50
2021,06,28,07,07,20.50
2021,06,28,07,08,20.50
2021,06,28,07,09,20.60
2021,06,28,07,10,20.60
2021,06,28,07,11,20.60
2021,06,28,07,12,20.70
2021,06,28,07,13,20.70
2021,06,28,07,14,20.70
2021,06,28,07,15,20.70
2021,06,28,07,16,20.80
2021,06,28,07,17,20.80
2021,06,28,07,18,20.80
2021,06,28,07,19,20.90
2021,06,28,07,20,20.90
2021,06,28,07,21,20.90
2021,06,28,07,22,20.90
2021,06,28,07,23,21.00
2021,06,28,07,24,21.00
2021,06,28,07,25,21.00
2021,06,28,07,26,21.00
2021,06,28,07,27,21.00
2021,06,28,07,28,21.00
2021,06,28,07,29,21.00
2021,06,28,07,30,21.00
2021,06,28,07,31,21.10
2021,06,28,07,32,21.10
2021,06,28,07,33,21.10
2021,06,28,07,34,21.10
2021,06,28,07,35,21.20
2021,06,28,07,36,21.20
2021,06,28,07,37,21.20
2021,06,28,07,38,21.20
2021,06,28,07,39,21.30
2021,06,28,07,40,21.30
2021,06,28,07,41,21.30
2021,06,28,07,42,21.30
2021,06,28,07,43,21.30
2021,06,28,07,44,21.30
2021,06,28,07,45,21.30
2021,06,28,07,46,21.30
2021,06,28,07,47,21.30
2021,06,28,07,48,21.30
2021,06,28,07,49,21.20
2021,06,28,07,50,21.10
2021,06,28,07,51,21.10
2021,06,28,07,52,21.10
2021,06,28,07,53,21.10
2021,06,28,07,54,21.10
2021,06,28,07,55,21.20
2021,06,28,07,56,21.20
2021,06,28,07,57,21.20
2021,06,28,07,58,21.20
2021,06,28,07,59,21.20
2021,06,28,08,00,21.30
2021,06,28,08,01,21.30
2021,06,28,08,02,21.40
2021,06,28,08,03,21.40
2021,06,28,08,04,21.50
2021,06,28,08,05,21.60
2021,06,28,08,06,21.60
2021,06,28,08,07,21.70
2021,06,28,08,08,21.80
2021,06,28,08,09,21.90
2021,06,28,08,10,21.90
2021,06,28,08,11,22.00
2021,06,28,08,12,22.00
2021,06,28,08,13,22.00
2021,06,28,08,14,22.10
2021,06,28,08,15,22.10
2021,06,28,08,16,22.20
2021,06,28,08,17,22.20
2021,06,28,08,18,22.30
2021,06,28,08,19,22.30
2021,06,28,08,20,22.40
2021,06,28,08,21,22.40
2021,06,28,08,22,22.50
2021,06,28,08,23,22.50
2021,06,28,08,24,22.60
2021,06,28,08,25,22.60
2021,06,28,08,26,22.70
2021,06,28,08,27,22.70
2021,06,28,08,28,22.80
2021,06,28,08,29,22.80
2021,06,28,08,30,22.80
2021,06,28,08,31,22.80
2021,06,28,08,32,22.80
2021,06,28,08,33,22.80
2021,06,28,08,34,22.80
2021,06,28,08,35,22.70
2021,06,28,08,36,22.70
2021,06,28,08,37,22.70
2021,06,28,08,38,22.80
2021,06,28,08,39,22.80
2021,06,28,08,40,22.80
2021,06,28,08,41,22.90
2021,06,28,08,42,23.00
2021,06,28,08,43,23.00
2021,06,28,08,44,23.10
2021,06,28,08,45,23.20
2021,06,28,08,46,23.30
2021,06,28,08,47,23.40
2021,06,28,08,48,23.50
2021,06,28,08,49,23.50
2021,06,28,08,50,23.60
2021,06,28,08,51,23.60
2021,06,28,08,52,23.60
2021,06,28,08,53,23.60
2021,06,28,08,54,23.60
2021,06,28,08,55,23.60
2021,06,28,08,56,23.50
2021,06,28,08,57,23.50
2021,06,28,08,58,23.50
2021,06,28,08,59,23.50
2021,06,28,09,00,23.50
2021,06,28,09,01,23.60
2021,06,28,09,02,23.70
2021,06,28,09,03,23.70
2021,06,28,09,04,23.80
2021,06,28,09,05,23.80
2021,06,28,09,06,23.80
2021,06,28,09,07,23.80
2021,06,28,09,08,23.80
2021,06,28,09,09,23.80
2021,06,28,09,10,23.90
2021,06,28,09,11,23.90
2021,06,28,09,12,24.00
2021,06,28,09,13,24.10
2021,06,28,09,14,24.10
2021,06,28,09,15,24.20
2021,06,28,09,16,24.30
2021,06,28,09,17,24.40
2021,06,28,09,18,24.60
2021,06,28,09,19,24.70
2021,06,28,09,20,24.80
2021,06,28,09,21,24.90
2021,06,28,09,22,25.00
2021,06,28,09,23,25.10
2021,06,28,09,24,25.20
2021,06,28,09,25,25.20
2021,06,28,09,26,25.20
2021,06,28,09,27,25.20
2021,06,28,09,28,25.20
2021,06,28,09,29,25.20
2021,06,28,09,30,25.20
2021,06,28,09,31,25.20
2021,06,28,09,32,25.30
2021,06,28,09,33,25.30
2021,06,28,09,34,25.40
2021,06,28,09,35,25.50
2021,06,28,09,36,25.60
2021,06,28,09,37,25.60
2021,06,28,09,38,25.70
2021,06,28,09,39,25.80
2021,06,28,09,40,25.90
2021,06,28,09,41,26.00
2021,06,28,09,42,26.10
2021,06,28,09,43,26.20
2021,06,28,09,44,26.30
2021,06,28,09,45,26.40
2021,06,28,09,46,26.50
2021,06,28,09,47,26.60
2021,06,28,09,48,26.70
2021,06,28,09,49,26.80
2021,06,28,09,50,26.90
2021,06,28,09,51,27.00
2021,06,28,09,52,27.10
2021,06,28,09,53,27.10
2021,06,28,09,54,27.10
2021,06,28,09,55,27.10
2021,06,28,09,56,27.10
2021,06,28,09,57,27.10
2021,06,28,09,58,27.10
2021,06,28,09,59,27.10
2021,06,28,10,00,27.10
2021,06,28,10,01,27.00
2021,06,28,10,02,26.90
2021,06,28,10,03,26.80
2021,06,28,10,04,26.80
2021,06,28,10,05,26.70
2021,06,28,10,06,26.60
2021,06,28,10,07,26.60
2021,06,28,10,08,26.60
2021,06,28,10,09,26.60
2021,06,28,10,10,26.60
2021,06,28,10,11,26.60
2021,06,28,10,12,26.70
2021,06,28,10,13,26.80
2021,06,28,10,14,26.90
2021,06,28,10,15,27.00
2021,06,28,10,16,27.00
2021,06,28,10,17,27.10
2021,06,28,10,18,27.10
2021,06,28,10,19,27.20
2021,06,28,10,20,27.20
2021,06,28,10,21,27.20
2021,06,28,10,22,27.30
2021,06,28,10,23,27.30
2021,06,28,10,24,27.40
2021,06,28,10,25,27.50
2021,06,28,10,26,27.60
2021,06,28,10,27,27.70
2021,06,28,10,28,27.80
2021,06,28,10,29,27.90
2021,06,28,10,30,28.00
2021,06,28,10,31,28.10
2021,06,28,10,32,28.20
2021,06,28,10,33,28.20
2021,06,28,10,34,28.20
2021,06,28,10,35,28.20
2021,06,28,10,36,28.20
2021,06,28,10,37,28.20
2021,06,28,10,38,28.20
2021,06,28,10,39,28.20
2021,06,28,10,40,28.20
2021,06,28,10,41,28.20
2021,06,28,10,42,28.30
2021,06,28,10,43,28.30
2021,06,28,10,44,28.30
2021,06,28,10,45,28.20
2021,06,28,10,46,28.20
2021,06,28,10,47,28.20
2021,06,28,10,48,28.20
2021,06,28,10,49,28.20
2021,06,28,10,50,28.30
2021,06,28,10,51,28.30
2021,06,28,10,52,28.30
2021,06,28,10,53,28.30
2021,06,28,10,54,28.30
2021,06,28,10,55,28.40
2021,06,28,10,56,28.40
2021,06,28,10,57,28.40
2021,06,28,10,58,28.50
2021,06,28,10,59,28.50
2021,06,28,11,00,28.60
2021,06,28,11,01,28.70
2021,06,28,11,02,28.80
2021,06,28,11,03,28.80
2021,06,28,11,04,28.90
2021,06,28,11,05,29.00
2021,06,28,11,06,29.20
2021,06,28,11,07,29.30
2021,06,28,11,08,29.40
2021,06,28,11,09,29.50
2021,06,28,11,10,29.70
2021,06,28,11,11,29.80
2021,06,28,11,12,29.90
2021,06,28,11,13,30.00
2021,06,28,11,14,30.10
2021,06,28,11,15,30.20
2021,06,28,11,16,30.30
2021,06,28,11,17,30.30
2021,06,28,11,18,30.40
2021,06,28,11,19,30.50
2021,06,28,11,20,30.60
2021,06,28,11,21,30.70
2021,06,28,11,22,30.80
2021,06,28,11,23,30.90
2021,06,28,11,24,31.00
2021,06,28,11,25,31.20
2021,06,28,11,26,31.30
2021,06,28,11,27,31.40
2021,06,28,11,28,31.50
2021,06,28,11,29,31.70
2021,06,28,11,30,31.80
2021,06,28,11,31,32.00
2021,06,28,11,32,32.20
2021,06,28,11,33,32.30
2021,06,28,11,34,32.40
2021,06,28,11,35,32.60
2021,06,28,11,36,32.60
2021,06,28,11,37,32.70
2021,06,28,11,38,32.70
2021,06,28,11,39,32.60
2021,06,28,11,40,32.50
2021,06,28,11,41,32.50
2021,06,28,11,42,32.40
2021,06,28,11,43,32.30
2021,06,28,11,44,32.30
2021,06,28,11,45,32.30
2021,06,28,11,46,32.30
2021,06,28,11,47,32.20
2021,06,28,11,48,32.20
2021,06,28,11,49,32.20
2021,06,28,11,50,32.20
2021,06,28,11,51,32.20
2021,06,28,11,52,32.30
2021,06,28,11,53,32.40
2021,06,28,11,54,32.50
2021,06,28,11,55,32.60
2021,06,28,11,56,32.80
2021,06,28,11,57,32.80
2021,06,28,11,58,32.90
2021,06,28,11,59,33.00
2021,06,28,12,00,33.10
2021,06,28,12,01,33.20
2021,06,28,12,02,33.30
2021,06,28,12,03,33.30
2021,06,28,12,04,33.30
2021,06,28,12,05,33.30
2021,06,28,12,06,33.30
2021,06,28,12,07,33.30
2021,06,28,12,08,33.30
2021,06,28,12,09,33.30
2021,06,28,12,10,33.20
2021,06,28,12,11,33.20
2021,06,28,12,12,33.10
2021,06,28,12,13,33.00
2021,06,28,12,14,32.90
2021,06,28,12,15,32.70
2021,06,28,12,16,32.70
2021,06,28,12,17,32.60
2021,06,28,12,18,32.60
2021,06,28,12,19,32.50
2021,06,28,12,20,32.40
2021,06,28,12,21,32.30
2021,06,28,12,22,32.30
2021,06,28,12,23,32.30
2021,06,28,12,24,32.30
2021,06,28,12,25,32.40
2021,06,28,12,26,32.50
2021,06,28,12,27,32.60
2021,06,28,12,28,32.70
2021,06,28,12,29,32.80
2021,06,28,12,30,32.90
2021,06,28,12,31,33.00
2021,06,28,12,32,33.00
2021,06,28,12,33,33.10
2021,06,28,12,34,33.10
2021,06,28,12,35,33.10
2021,06,28,12,36,33.10
2021,06,28,12,37,33.20
2021,06,28,12,38,33.30
2021,06,28,12,39,33.40
2021,06,28,12,40,33.60
2021,06,28,12,41,33.70
2021,06,28,12,42,33.80
2021,06,28,12,43,33.90
2021,06,28,12,44,34.00
2021,06,28,12,45,34.10
2021,06,28,12,46,34.10
2021,06,28,12,47,34.20
2021,06,28,12,48,34.30
2021,06,28,12,49,34.30
2021,06,28,12,50,34.30
2021,06,28,12,51,34.40
2021,06,28,12,52,34.40
2021,06,28,12,53,34.40
2021,06,28,12,54,34.50
2021,06,28,12,55,34.50
2021,06,28,12,56,34.50
2021,06,28,12,57,34.60
2021,06,28,12,58,34.70
2021,06,28,12,59,34.80
2021,06,28,13,00,34.90
2021,06,28,13,01,35.00
2021,06,28,13,02,35.10
2021,06,28,13,03,35.20
2021,06,28,13,04,35.20
2021,06,28,13,05,35.20
2021,06,28,13,06,35.20
2021,06,28,13,07,35.30
2021,06,28,13,08,35.30
2021,06,28,13,09,35.30
2021,06,28,13,10,35.30
2021,06,28,13,11,35.30
2021,06,28,13,12,35.20
2021,06,28,13,13,35.10
2021,06,28,13,14,35.10
2021,06,28,13,15,35.00
2021,06,28,13,16,34.90
2021,06,28,13,17,34.80
2021,06,28,13,18,34.80
2021,06,28,13,19,34.80
2021,06,28,13,20,34.70
2021,06,28,13,21,34.70
2021,06,28,13,22,34.50
2021,06,28,13,23,34.40
2021,06,28,13,24,34.30
2021,06,28,13,25,34.30
2021,06,28,13,26,34.20
2021,06,28,13,27,34.30
2021,06,28,13,28,34.30
2021,06,28,13,29,34.30
2021,06,28,13,30,34.30
2021,06,28,13,31,34.40
2021,06,28,13,32,34.40
2021,06,28,13,33,34.50
2021,06,28,13,34,34.50
2021,06,28,13,35,34.60
2021,06,28,13,36,34.70
2021,06,28,13,37,34.70
2021,06,28,13,38,34.80
2021,06,28,13,39,34.80
2021,06,28,13,40,34.90
2021,06,28,13,41,34.90
2021,06,28,13,42,35.00
2021,06,28,13,43,35.00
2021,06,28,13,44,35.10
2021,06,28,13,45,35.20
2021,06,28,13,46,35.20
2021,06,28,13,47,35.20
2021,06,28,13,48,35.20
2021,06,28,13,49,35.20
2021,06,28,13,50,35.20
2021,06,28,13,51,35.20
2021,06,28,13,52,35.20
2021,06,28,13,53,35.20
2021,06,28,13,54,35.20
2021,06,28,13,55,35.20
2021,06,28,13,56,35.20
2021,06,28,13,57,35.20
2021,06,28,13,58,35.20
2021,06,28,13,59,35.20
2021,06,28,14,00,35.20
2021,06,28,14,01,35.30
2021,06,28,14,02,35.30
2021,06,28,14,03,35.50
2021,06,28,14,04,35.60
2021,06,28,14,05,35.70
2021,06,28,14,06,35.70
2021,06,28,14,07,35.60
2021,06,28,14,08,35.60
2021,06,28,14,09,35.60
2021,06,28,14,10,35.50
2021,06,28,14,11,35.50
2021,06,28,14,12,35.50
2021,06,28,14,13,35.50
2021,06,28,14,14,35.50
2021,06,28,14,15,35.50
2021,06,28,14,16,35.50
2021,06,28,14,17,35.50
2021,06,28,14,18,35.50
2021,06,28,14,19,35.50
2021,06,28,14,20,35.40
2021,06,28,14,21,35.40
2021,06,28,14,22,35.40
2021,06,28,14,23,35.40
2021,06,28,14,24,35.40
2021,06,28,14,25,35.30
2021,06,28,14,26,35.30
2021,06,28,14,27,35.40
2021,06,28,14,28,35.40
2021,06,28,14,29,35.40
2021,06,28,14,30,35.50
2021,06,28,14,31,35.50
2021,06,28,14,32,35.60
2021,06,28,14,33,35.60
2021,06,28,14,34,35.70
2021,06,28,14,35,35.70
2021,06,28,14,36,35.70
2021,06,28,14,37,35.70
2021,06,28,14,38,35.70
2021,06,28,14,39,35.70
2021,06,28,14,40,35.80
2021,06,28,14,41,35.80
2021,06,28,14,42,35.90
2021,06,28,14,43,35.90
2021,06,28,14,44,36.00
2021,06,28,14,45,36.00
2021,06,28,14,46,36.00
2021,06,28,14,47,36.10
2021,06,28,14,48,36.00
2021,06,28,14,49,36.10
2021,06,28,14,50,36.10
2021,06,28,14,51,36.20
2021,06,28,14,52,36.30
2021,06,28,14,53,36.40
2021,06,28,14,54,36.40
2021,06,28,14,55,36.40
2021,06,28,14,56,36.40
2021,06,28,14,57,36.30
2021,06,28,14,58,36.20
2021,06,28,14,59,36.10
2021,06,28,15,00,36.10
2021,06,28,15,01,36.10
2021,06,28,15,02,36.20
2021,06,28,15,03,36.20
2021,06,28,15,04,36.30
2021,06,28,15,05,36.40
2021,06,28,15,06,36.40
2021,06,28,15,07,36.40
2021,06,28,15,08,36.40
2021,06,28,15,09,36.40
2021,06,28,15,10,36.50
2021,06,28,15,11,36.50
2021,06,28,15,12,36.50
2021,06,28,15,13,36.50
2021,06,28,15,14,36.50
2021,06,28,15,15,36.60
2021,06,28,15,16,36.60
2021,06,28,15,17,36.60
2021,06,28,15,18,36.60
2021,06,28,15,19,36.70
2021,06,28,15,20,36.70
2021,06,28,15,21,36.70
2021,06,28,15,22,36.80
2021,06,28,15,23,36.80
2021,06,28,15,24,36.80
2021,06,28,15,25,36.80
2021,06,28,15,26,36.80
2021,06,28,15,27,36.70
2021,06,28,15,28,36.70
2021,06,28,15,29,36.60
2021,06,28,15,30,36.50
2021,06,28,15,31,36.50
2021,06,28,15,32,36.40
2021,06,28,15,33,36.40
2021,06,28,15,34,36.40
2021,06,28,15,35,36.40
2021,06,28,15,36,36.50
2021,06,28,15,37,36.60
2021,06,28,15,38,36.70
2021,06,28,15,39,36.80
2021,06,28,15,40,36.90
2021,06,28,15,41,37.00
2021,06,28,15,42,37.10
2021,06,28,15,43,37.10
2021,06,28,15,44,37.20
2021,06,28,15,45,37.40
2021,06,28,15,46,37.50
2021,06,28,15,47,37.60
2021,06,28,15,48,37.60
2021,06,28,15,49,37.70
2021,06,28,15,50,37.70
2021,06,28,15,51,37.70
2021,06,28,15,52,37.70
2021,06,28,15,53,37.60
2021,06,28,15,54,37.50
2021,06,28,15,55,37.50
2021,06,28,15,56,37.40
2021,06,28,15,57,37.30
2021,06,28,15,58,37.30
2021,06,28,15,59,37.20
2021,06,28,16,00,37.20
2021,06,28,16,01,37.10
2021,06,28,16,02,37.10
2021,06,28,16,03,37.00
2021,06,28,16,04,37.10
2021,06,28,16,05,37.10
2021,06,28,16,06,37.10
2021,06,28,16,07,37.10
2021,06,28,16,08,37.20
2021,06,28,16,09,37.20
2021,06,28,16,10,37.30
2021,06,28,16,11,37.30
2021,06,28,16,12,37.30
2021,06,28,16,13,37.40
2021,06,28,16,14,37.40
2021,06,28,16,15,37.40
2021,06,28,16,16,37.40
2021,06,28,16,17,37.50
2021,06,28,16,18,37.50
2021,06,28,16,19,37.50
2021,06,28,16,20,37.50
2021,06,28,16,21,37.50
2021,06,28,16,22,37.40
2021,06,28,16,23,37.40
2021,06,28,16,24,37.40
2021,06,28,16,25,37.40
2021,06,28,16,26,37.40
2021,06,28,16,27,37.40
2021,06,28,16,28,37.50
2021,06,28,16,29,37.50
2021,06,28,16,30,37.60
2021,06,28,16,31,37.60
2021,06,28,16,32,37.70
2021,06,28,16,33,37.70
2021,06,28,16,34,37.80
2021,06,28,16,35,37.80
2021,06,28,16,36,37.90
2021,06,28,16,37,37.90
2021,06,28,16,38,37.90
2021,06,28,16,39,37.90
2021,06,28,16,40,38.00
2021,06,28,16,41,38.00
2021,06,28,16,42,38.10
2021,06,28,16,43,38.10
2021,06,28,16,44,38.10
2021,06,28,16,45,38.10
2021,06,28,16,46,38.10
2021,06,28,16,47,38.10
2021,06,28,16,48,38.10
2021,06,28,16,49,38.10
2021,06,28,16,50,38.10
2021,06,28,16,51,38.10
2021,06,28,16,52,38.10
2021,06,28,16,53,38.10
2021,06,28,16,54,38.20
2021,06,28,16,55,38.20
2021,06,28,16,56,38.20
2021,06,28,16,57,38.20
2021,06,28,16,58,38.20
2021,06,28,16,59,38.20
2021,06,28,17,00,38.20
2021,06,28,17,01,38.20
2021,06,28,17,02,38.20
2021,06,28,17,03,38.20
2021,06,28,17,04,38.10
2021,06,28,17,05,38.10
2021,06,28,17,06,38.00
2021,06,28,17,07,38.00
2021,06,28,17,08,38.00
2021,06,28,17,09,38.00
2021,06,28,17,10,38.00
2021,06,28,17,11,37.90
2021,06,28,17,12,37.90
2021,06,28,17,13,37.90
2021,06,28,17,14,37.90
2021,06,28,17,15,37.90
2021,06,28,17,16,37.90
2021,06,28,17,17,37.90
2021,06,28,17,18,37.90
2021,06,28,17,19,37.90